User: anonymous   Login
Location: Sungai Apap
(2.6167°N, 113.3833°E)
Time: 21:32:52
(UTC+00:00)
Language:

COSMOS 2428 - Orbit

View from above orbital plane
View from above orbital plane
View from above satellite
View from above satellite

Ground track
Ground track

The orbit data is extracted from the following two-line orbital elements,

1 31792U 07029A   24197.59268582 -.00000153  00000-0 -56466-4 0  9990
2 31792  70.9382  27.1667 0009680 358.8246   1.2851 14.12705947879057
Epoch (UTC): 15 July 2024 14:13:28
Eccentricity: 0.0009680
inclination: 70.9382°
perigee height: 843 km
apogee height: 857 km
right ascension of ascending node: 27.1667°
argument of perigee: 358.8246°
revolutions per day: 14.12705947
mean anomaly at epoch: 1.2851°
orbit number at epoch: 87905

The dashed part of the orbit path shows where the satellite is in the earth's shadow,  

DLR